Location: Unspecified
(48.2082°N, 0.0000°E)
Time: 11:20:18
(UTC+00:00)

Vanguard 1 - Pass Details

Date: 29 June 2019
Orbit: 653 x 3830 km, 34.3° (Epoch: 20 July)

Event Time Altitude Azimuth Distance (km) Brightness Sun altitude
Rises 01:00:27 0° 233° (SW) 7,964 14.2 -17.4°
Reaches altitude 10° 01:06:26 10° 228° (SW) 6,892 13.9 -17.2°
Maximum altitude 01:26:21 44° 166° (SSE) 3,850 12.6 -16.2°
Drops below altitude 10° 01:39:30 10° 101° (ESE) 4,693 13.7 -15.4°
Sets 01:42:40 0° 95° (E) 5,332 14.1 -15.2°
